20040404,000006,1036796,34.281050,-120.020760,15.155,33.345,NaN,NaN
20040404,000036,1036825,34.281130,-120.020760,15.227,33.346,NaN,NaN
20040404,000105,1036855,34.281260,-120.020770,15.296,33.347,NaN,NaN
20040404,000135,1036885,34.281340,-120.020820,15.353,33.345,NaN,NaN
20040404,000206,1036916,34.281420,-120.020910,15.405,33.347,NaN,NaN
20040404,000236,1036946,34.281500,-120.021010,15.449,33.347,NaN,NaN
20040404,000306,1036976,34.281600,-120.021050,15.489,33.347,NaN,NaN
20040404,000335,1037005,34.281690,-120.021080,15.520,33.347,NaN,NaN
20040404,000405,1037035,34.281780,-120.021080,15.545,33.347,NaN,NaN
20040404,000436,1037066,34.281870,-120.021050,15.566,33.347,NaN,NaN
20040404,000506,1037096,34.281990,-120.021030,15.584,33.347,NaN,NaN
20040404,000535,1037125,34.282140,-120.021050,15.595,33.347,NaN,NaN
20040404,000606,1037156,34.282330,-120.021100,15.601,33.346,NaN,NaN
20040404,000636,1037186,34.282470,-120.021240,15.592,33.346,NaN,NaN
20040404,000705,1037215,34.282620,-120.021430,15.571,33.344,NaN,NaN
20040404,000735,1037245,34.282770,-120.021680,15.537,33.344,NaN,NaN
20040404,000806,1037276,34.282980,-120.021930,15.497,33.344,NaN,NaN
20040404,000836,1037306,34.283210,-120.022210,15.459,33.341,NaN,NaN
20040404,000906,1037335,34.283390,-120.022440,15.439,33.345,NaN,NaN
20040404,000935,1037365,34.283580,-120.022600,15.436,33.345,NaN,NaN
20040404,001006,1037396,34.283760,-120.022700,15.435,33.345,NaN,NaN
20040404,001036,1037426,34.283880,-120.022800,15.438,33.343,NaN,NaN
20040404,001105,1037455,34.284040,-120.022840,15.434,33.345,NaN,NaN
20040404,001136,1037486,34.284170,-120.022870,15.419,33.344,NaN,NaN
20040404,001206,1037516,34.284330,-120.022930,15.409,33.344,NaN,NaN
20040404,001236,1037546,34.284480,-120.023000,15.404,33.344,NaN,NaN
20040404,001305,1037575,34.284610,-120.023070,15.394,33.344,NaN,NaN
20040404,001336,1037606,34.284720,-120.023130,15.380,33.344,NaN,NaN
20040404,001405,1037635,34.284890,-120.023200,15.375,33.344,NaN,NaN
20040404,001436,1037666,34.285010,-120.023280,15.375,33.344,NaN,NaN
20040404,001506,1037696,34.285140,-120.023340,15.375,33.344,NaN,NaN
20040404,001536,1037726,34.285280,-120.023360,15.381,33.344,NaN,NaN
20040404,001605,1037755,34.285410,-120.023380,15.388,33.344,NaN,NaN
20040404,001635,1037785,34.285510,-120.023390,15.394,33.344,NaN,NaN
20040404,001705,1037815,34.285610,-120.023370,15.406,33.344,NaN,NaN
20040404,001736,1037845,34.285710,-120.023350,15.417,33.344,NaN,NaN
20040404,001806,1037876,34.285820,-120.023330,15.428,33.344,NaN,NaN
20040404,001835,1037905,34.285950,-120.023350,15.438,33.344,NaN,NaN
20040404,001906,1037936,34.286090,-120.023410,15.444,33.344,NaN,NaN
20040404,001936,1037966,34.286240,-120.023510,15.447,33.344,NaN,NaN
20040404,002006,1037996,34.286390,-120.023640,15.446,33.343,NaN,NaN
20040404,002035,1038025,34.286540,-120.023790,15.445,33.343,NaN,NaN
20040404,002106,1038056,34.286680,-120.023960,15.447,33.344,NaN,NaN
20040404,002135,1038085,34.286850,-120.024140,15.444,33.343,NaN,NaN
20040404,002206,1038116,34.287020,-120.024330,15.435,33.341,NaN,NaN
20040404,002236,1038146,34.287190,-120.024520,15.428,33.343,NaN,NaN
20040404,002306,1038175,34.287360,-120.024710,15.423,33.343,NaN,NaN
20040404,002336,1038206,34.287540,-120.024900,15.417,33.343,NaN,NaN
20040404,002406,1038236,34.287690,-120.025060,15.407,33.343,NaN,NaN
20040404,002436,1038266,34.287840,-120.025180,15.380,33.341,NaN,NaN
20040404,002506,1038296,34.287960,-120.025290,15.354,33.342,NaN,NaN
20040404,002536,1038326,34.288090,-120.025410,15.344,33.343,NaN,NaN
20040404,002606,1038355,34.288240,-120.025560,15.343,33.343,NaN,NaN
20040404,002636,1038386,34.288420,-120.025680,15.345,33.343,NaN,NaN
20040404,002706,1038416,34.288600,-120.025830,15.342,33.342,NaN,NaN
20040404,002736,1038446,34.288750,-120.025990,15.314,33.342,NaN,NaN
20040404,002806,1038476,34.288890,-120.026150,15.286,33.342,NaN,NaN
20040404,002836,1038506,34.289060,-120.026300,15.277,33.342,NaN,NaN
20040404,002906,1038536,34.289230,-120.026450,15.274,33.342,NaN,NaN
20040404,002936,1038566,34.289360,-120.026630,15.269,33.340,NaN,NaN
20040404,003006,1038596,34.289530,-120.026810,15.255,33.340,NaN,NaN
20040404,003036,1038626,34.289690,-120.027000,15.233,33.342,NaN,NaN
20040404,003106,1038656,34.289870,-120.027180,15.206,33.341,NaN,NaN
20040404,003136,1038685,34.290030,-120.027370,15.181,33.341,NaN,NaN
20040404,003206,1038716,34.290180,-120.027540,15.154,33.341,NaN,NaN
20040404,003236,1038746,34.290340,-120.027700,15.127,33.341,NaN,NaN
20040404,003306,1038776,34.290510,-120.027850,15.106,33.341,NaN,NaN
20040404,003336,1038806,34.290660,-120.027990,15.088,33.341,NaN,NaN
20040404,003406,1038836,34.290840,-120.028130,15.070,33.341,NaN,NaN
20040404,003436,1038866,34.290990,-120.028280,15.062,33.341,NaN,NaN
20040404,003506,1038896,34.291160,-120.028440,15.055,33.341,NaN,NaN
20040404,003536,1038926,34.291350,-120.028620,15.059,33.340,NaN,NaN
20040404,003606,1038956,34.291490,-120.028780,15.059,33.342,NaN,NaN
20040404,003636,1038986,34.291610,-120.028970,15.066,33.339,NaN,NaN
20040404,003706,1039016,34.291690,-120.029170,15.072,33.341,NaN,NaN
20040404,003736,1039046,34.291730,-120.029390,15.082,33.341,NaN,NaN
20040404,003806,1039076,34.291750,-120.029650,15.089,33.342,NaN,NaN
20040404,003836,1039106,34.291740,-120.029930,15.102,33.341,NaN,NaN
20040404,003906,1039136,34.291750,-120.030230,15.113,33.326,NaN,NaN
20040404,003936,1039166,34.291700,-120.030580,15.121,33.341,NaN,NaN
20040404,004006,1039195,34.291670,-120.030950,15.129,33.341,NaN,NaN
20040404,004036,1039226,34.291630,-120.031330,15.126,33.341,NaN,NaN
20040404,004106,1039256,34.291620,-120.031710,15.114,33.336,NaN,NaN
20040404,004136,1039286,34.291590,-120.032070,15.100,33.341,NaN,NaN
20040404,004206,1039316,34.291560,-120.032410,15.089,33.340,NaN,NaN
20040404,004236,1039346,34.291550,-120.032750,15.076,33.340,NaN,NaN
20040404,004306,1039376,34.291520,-120.033070,15.066,33.341,NaN,NaN
20040404,004336,1039406,34.291510,-120.033390,15.062,33.340,NaN,NaN
20040404,004406,1039436,34.291500,-120.033690,15.066,33.340,NaN,NaN
20040404,004436,1039466,34.291490,-120.033960,15.050,33.340,NaN,NaN
20040404,004506,1039496,34.291470,-120.034190,15.026,33.340,NaN,NaN
20040404,004536,1039525,34.291490,-120.034380,14.996,33.340,NaN,NaN
20040404,004606,1039556,34.291490,-120.034530,14.963,33.340,NaN,NaN
20040404,004636,1039586,34.291500,-120.034650,14.907,33.340,NaN,NaN
20040404,004706,1039616,34.291510,-120.034770,14.824,33.339,NaN,NaN
20040404,004736,1039646,34.291500,-120.034910,14.766,33.340,NaN,NaN
20040404,004806,1039676,34.291520,-120.035040,14.721,33.340,NaN,NaN
20040404,004836,1039705,34.291530,-120.035210,14.701,33.340,NaN,NaN
20040404,004906,1039736,34.291520,-120.035370,14.703,33.340,NaN,NaN
20040404,004936,1039766,34.291520,-120.035570,14.707,33.340,NaN,NaN
20040404,005006,1039796,34.291500,-120.035770,14.698,33.340,NaN,NaN
20040404,005036,1039826,34.291490,-120.035980,14.693,33.340,NaN,NaN
20040404,005106,1039856,34.291480,-120.036200,14.690,33.340,NaN,NaN
20040404,005136,1039886,34.291470,-120.036400,14.687,33.340,NaN,NaN
20040404,005206,1039916,34.291460,-120.036610,14.684,33.340,NaN,NaN
20040404,005236,1039946,34.291450,-120.036810,14.678,33.340,NaN,NaN
20040404,005306,1039976,34.291430,-120.037020,14.675,33.340,NaN,NaN
20040404,005336,1040006,34.291410,-120.037230,14.671,33.340,NaN,NaN
20040404,005406,1040035,34.291400,-120.037450,14.660,33.340,NaN,NaN
20040404,005436,1040066,34.291380,-120.037670,14.643,33.340,NaN,NaN
20040404,005506,1040096,34.291360,-120.037890,14.640,33.340,NaN,NaN
20040404,005536,1040126,34.291340,-120.038110,14.632,33.340,NaN,NaN
20040404,005606,1040156,34.291320,-120.038310,14.624,33.340,NaN,NaN
20040404,005636,1040186,34.291330,-120.038490,14.613,33.340,NaN,NaN
20040404,005706,1040216,34.291330,-120.038670,14.601,33.340,NaN,NaN
20040404,005736,1040246,34.291290,-120.038870,14.592,33.340,NaN,NaN
20040404,005806,1040276,34.291270,-120.039060,14.586,33.340,NaN,NaN
20040404,005836,1040306,34.291250,-120.039250,14.585,33.337,NaN,NaN
20040404,005906,1040336,34.291240,-120.039450,14.582,33.340,NaN,NaN
20040404,005936,1040366,34.291230,-120.039640,14.581,33.340,NaN,NaN
20040404,010006,1040396,34.291200,-120.039850,14.580,33.340,NaN,NaN
20040404,010036,1040426,34.291170,-120.040040,14.585,33.340,NaN,NaN
20040404,010106,1040456,34.291160,-120.040240,14.590,33.340,NaN,NaN
20040404,010136,1040486,34.291140,-120.040450,14.593,33.335,NaN,NaN
20040404,010206,1040516,34.291120,-120.040640,14.594,33.340,NaN,NaN
20040404,010236,1040545,34.291110,-120.040840,14.595,33.340,NaN,NaN
20040404,010307,1040577,34.291100,-120.041050,14.596,33.340,NaN,NaN
20040404,010336,1040606,34.291100,-120.041240,14.599,33.340,NaN,NaN
20040404,010406,1040636,34.291150,-120.041450,14.602,33.340,NaN,NaN
20040404,010437,1040667,34.291220,-120.041650,14.609,33.340,NaN,NaN
20040404,010506,1040696,34.291310,-120.041840,14.620,33.340,NaN,NaN
20040404,010537,1040727,34.291450,-120.042040,14.628,33.340,NaN,NaN
20040404,010608,1040758,34.291600,-120.042190,14.632,33.340,NaN,NaN
20040404,010637,1040786,34.291760,-120.042350,14.641,33.340,NaN,NaN
20040404,010708,1040818,34.291910,-120.042490,14.652,33.340,NaN,NaN
20040404,010737,1040847,34.292050,-120.042610,14.666,33.340,NaN,NaN
20040404,010808,1040877,34.292160,-120.042730,14.674,33.340,NaN,NaN
20040404,010838,1040908,34.292280,-120.042850,14.687,33.340,NaN,NaN
20040404,010907,1040937,34.292390,-120.042960,14.699,33.340,NaN,NaN
20040404,010937,1040966,34.292490,-120.043100,14.713,33.340,NaN,NaN
20040404,011008,1040998,34.292620,-120.043220,14.731,33.340,NaN,NaN
20040404,011037,1041027,34.292730,-120.043340,14.743,33.340,NaN,NaN
20040404,011107,1041057,34.292860,-120.043430,14.749,33.340,NaN,NaN
20040404,011137,1041087,34.292990,-120.043540,14.748,33.340,NaN,NaN
20040404,011208,1041118,34.293090,-120.043650,14.741,33.340,NaN,NaN
20040404,011238,1041148,34.293200,-120.043750,14.734,33.340,NaN,NaN
20040404,011308,1041178,34.293290,-120.043860,14.728,33.340,NaN,NaN
20040404,011338,1041207,34.293390,-120.043970,14.715,33.340,NaN,NaN
20040404,011407,1041237,34.293500,-120.044070,14.678,33.340,NaN,NaN
20040404,011437,1041267,34.293620,-120.044170,14.667,33.340,NaN,NaN
20040404,011508,1041298,34.293730,-120.044260,14.680,33.339,NaN,NaN
20040404,011538,1041328,34.293850,-120.044340,14.692,33.340,NaN,NaN
20040404,011607,1041357,34.293940,-120.044450,14.699,33.309,NaN,NaN
20040404,011637,1041387,34.294040,-120.044560,14.709,33.340,NaN,NaN
20040404,011708,1041418,34.294140,-120.044680,14.711,33.340,NaN,NaN
20040404,011737,1041447,34.294240,-120.044800,14.711,33.340,NaN,NaN
20040404,011808,1041478,34.294360,-120.044920,14.720,33.340,NaN,NaN
20040404,011837,1041507,34.294470,-120.045030,14.720,33.340,NaN,NaN
20040404,011907,1041537,34.294570,-120.045140,14.723,33.340,NaN,NaN
20040404,011938,1041568,34.294690,-120.045270,14.731,33.340,NaN,NaN
20040404,012008,1041598,34.294790,-120.045400,14.733,33.340,NaN,NaN
20040404,012037,1041626,34.294890,-120.045540,14.736,33.340,NaN,NaN
20040404,012108,1041658,34.295010,-120.045680,14.736,33.340,NaN,NaN
20040404,012137,1041687,34.295120,-120.045810,14.733,33.340,NaN,NaN
20040404,012208,1041717,34.295240,-120.045940,14.728,33.340,NaN,NaN
20040404,012238,1041748,34.295350,-120.046070,14.725,33.340,NaN,NaN
20040404,012308,1041778,34.295450,-120.046220,14.722,33.340,NaN,NaN
20040404,012338,1041808,34.295560,-120.046350,14.719,33.340,NaN,NaN
20040404,012407,1041837,34.295670,-120.046480,14.716,33.340,NaN,NaN
20040404,012438,1041868,34.295790,-120.046600,14.717,33.340,NaN,NaN
20040404,012507,1041897,34.295910,-120.046740,14.724,33.339,NaN,NaN
20040404,012538,1041928,34.296020,-120.046880,14.729,33.340,NaN,NaN
20040404,012607,1041957,34.296150,-120.047010,14.734,33.339,NaN,NaN
20040404,012637,1041987,34.296260,-120.047150,14.739,33.340,NaN,NaN
20040404,012707,1042017,34.296370,-120.047290,14.748,33.340,NaN,NaN
20040404,012737,1042047,34.296500,-120.047410,14.749,33.340,NaN,NaN
20040404,012808,1042078,34.296610,-120.047540,14.755,33.340,NaN,NaN
20040404,012837,1042107,34.296730,-120.047670,14.757,33.340,NaN,NaN
20040404,012907,1042136,34.296840,-120.047780,14.759,33.340,NaN,NaN
20040404,012937,1042167,34.296950,-120.047890,14.764,33.340,NaN,NaN
20040404,013007,1042197,34.297060,-120.048020,14.768,33.340,NaN,NaN
20040404,013037,1042227,34.297190,-120.048140,14.768,33.340,NaN,NaN
20040404,013108,1042258,34.297330,-120.048270,14.768,33.340,NaN,NaN
20040404,013138,1042288,34.297460,-120.048410,14.762,33.340,NaN,NaN
20040404,013207,1042316,34.297600,-120.048570,14.757,33.340,NaN,NaN
20040404,013238,1042348,34.297730,-120.048720,14.749,33.340,NaN,NaN
20040404,013307,1042377,34.297850,-120.048840,14.745,33.340,NaN,NaN
20040404,013337,1042407,34.297970,-120.048950,14.735,33.340,NaN,NaN
20040404,013407,1042437,34.298090,-120.049060,14.727,33.340,NaN,NaN
20040404,013438,1042468,34.298230,-120.049190,14.722,33.340,NaN,NaN
20040404,013508,1042498,34.298360,-120.049340,14.726,33.340,NaN,NaN
20040404,013537,1042527,34.298500,-120.049480,14.730,33.340,NaN,NaN
20040404,013607,1042557,34.298620,-120.049580,14.728,33.340,NaN,NaN
20040404,013638,1042588,34.298730,-120.049710,14.717,33.339,NaN,NaN
20040404,013707,1042617,34.298860,-120.049800,14.706,33.340,NaN,NaN
20040404,013738,1042648,34.298980,-120.049910,14.696,33.340,NaN,NaN
20040404,013808,1042678,34.299110,-120.050030,14.689,33.340,NaN,NaN
20040404,013838,1042708,34.299230,-120.050120,14.683,33.340,NaN,NaN
20040404,013908,1042738,34.299350,-120.050220,14.682,33.340,NaN,NaN
20040404,013938,1042768,34.299460,-120.050360,14.684,33.340,NaN,NaN
20040404,014007,1042797,34.299590,-120.050510,14.682,33.340,NaN,NaN
20040404,014038,1042828,34.299720,-120.050640,14.680,33.340,NaN,NaN
20040404,014108,1042858,34.299860,-120.050800,14.673,33.340,NaN,NaN
20040404,014138,1042887,34.300000,-120.050960,14.664,33.340,NaN,NaN
20040404,014208,1042918,34.300120,-120.051110,14.657,33.340,NaN,NaN
20040404,014238,1042948,34.300230,-120.051250,14.649,33.340,NaN,NaN
20040404,014307,1042976,34.300350,-120.051380,14.642,33.340,NaN,NaN
20040404,014337,1043007,34.300470,-120.051520,14.635,33.340,NaN,NaN
20040404,014408,1043038,34.300610,-120.051670,14.629,33.340,NaN,NaN
20040404,014437,1043067,34.300730,-120.051820,14.631,33.340,NaN,NaN
20040404,014508,1043098,34.300840,-120.051970,14.632,33.340,NaN,NaN
20040404,014538,1043128,34.300960,-120.052130,14.639,33.340,NaN,NaN
20040404,014608,1043158,34.301070,-120.052280,14.645,33.340,NaN,NaN
20040404,014638,1043188,34.301200,-120.052410,14.654,33.340,NaN,NaN
20040404,014708,1043218,34.301350,-120.052570,14.665,33.341,NaN,NaN
20040404,014737,1043247,34.301500,-120.052790,14.672,33.340,NaN,NaN
20040404,014808,1043278,34.301660,-120.053060,14.678,33.341,NaN,NaN
20040404,014838,1043308,34.301790,-120.053280,14.682,33.341,NaN,NaN
20040404,014908,1043338,34.301940,-120.053550,14.690,33.341,NaN,NaN
20040404,014938,1043368,34.302150,-120.054080,14.699,33.340,NaN,NaN
20040404,015008,1043397,34.302480,-120.054810,14.706,33.341,NaN,NaN
20040404,015038,1043428,34.302850,-120.055700,14.712,33.340,NaN,NaN
20040404,015108,1043458,34.303260,-120.056730,14.719,33.341,NaN,NaN
20040404,015138,1043488,34.303690,-120.057730,14.720,33.341,NaN,NaN
20040404,015208,1043518,34.304140,-120.058870,14.722,33.338,NaN,NaN
20040404,015238,1043548,34.304600,-120.060020,14.716,33.341,NaN,NaN
20040404,015308,1043577,34.305080,-120.061260,14.717,33.341,NaN,NaN
20040404,015338,1043608,34.305600,-120.062560,14.720,33.341,NaN,NaN
20040404,015408,1043638,34.306140,-120.063880,14.714,33.341,NaN,NaN
20040404,015438,1043668,34.306680,-120.065260,14.710,33.341,NaN,NaN
20040404,015508,1043698,34.307250,-120.066670,14.710,33.340,NaN,NaN
20040404,015539,1043729,34.307820,-120.068140,14.701,33.341,NaN,NaN
20040404,015609,1043759,34.308360,-120.069660,14.688,33.341,NaN,NaN
20040404,015638,1043788,34.308900,-120.071200,14.658,33.341,NaN,NaN
20040404,015708,1043818,34.309460,-120.072760,14.635,33.340,NaN,NaN
20040404,015738,1043848,34.310010,-120.074340,14.610,33.339,NaN,NaN
20040404,015808,1043878,34.310580,-120.075920,14.596,33.341,NaN,NaN
20040404,015839,1043909,34.311130,-120.077510,14.589,33.341,NaN,NaN
20040404,015908,1043938,34.311700,-120.079110,14.576,33.341,NaN,NaN
20040404,015938,1043968,34.312270,-120.080700,14.564,33.341,NaN,NaN
20040404,020008,1043998,34.312830,-120.082300,14.558,33.341,NaN,NaN
20040404,020038,1044028,34.313390,-120.083900,14.559,33.341,NaN,NaN
20040404,020108,1044058,34.313950,-120.085510,14.566,33.342,NaN,NaN
20040404,020139,1044089,34.314510,-120.087110,14.574,33.340,NaN,NaN
20040404,020209,1044119,34.315060,-120.088720,14.586,33.343,NaN,NaN
20040404,020239,1044148,34.315650,-120.090390,14.609,33.343,NaN,NaN
20040404,020309,1044179,34.316200,-120.091950,14.621,33.343,NaN,NaN
20040404,020339,1044209,34.316750,-120.093540,14.635,33.343,NaN,NaN
20040404,020409,1044239,34.317320,-120.095140,14.648,33.343,NaN,NaN
20040404,020439,1044269,34.317880,-120.096810,14.656,33.343,NaN,NaN
20040404,020509,1044299,34.318430,-120.098370,14.662,33.344,NaN,NaN
20040404,020539,1044328,34.318970,-120.099970,14.669,33.344,NaN,NaN
20040404,020609,1044359,34.319500,-120.101580,14.671,33.345,NaN,NaN
20040404,020639,1044389,34.320050,-120.103200,14.670,33.344,NaN,NaN
20040404,020709,1044419,34.320600,-120.104820,14.659,33.344,NaN,NaN
20040404,020739,1044449,34.321150,-120.106430,14.647,33.345,NaN,NaN
20040404,020810,1044480,34.321710,-120.108090,14.638,33.344,NaN,NaN
20040404,020839,1044509,34.322240,-120.109650,14.625,33.345,NaN,NaN
20040404,020910,1044540,34.322800,-120.111300,14.610,33.345,NaN,NaN
20040404,020940,1044569,34.323350,-120.112900,14.607,33.346,NaN,NaN
20040404,021010,1044600,34.323880,-120.114500,14.604,33.346,NaN,NaN
20040404,021040,1044630,34.324410,-120.116110,14.609,33.347,NaN,NaN
20040404,021109,1044658,34.324950,-120.117710,14.623,33.347,NaN,NaN
20040404,021140,1044690,34.325490,-120.119320,14.647,33.347,NaN,NaN
20040404,021210,1044720,34.326040,-120.120950,14.672,33.342,NaN,NaN
20040404,021240,1044749,34.326600,-120.122570,14.700,33.348,NaN,NaN
20040404,021310,1044780,34.327140,-120.124190,14.737,33.348,NaN,NaN
20040404,021340,1044810,34.327700,-120.125820,14.780,33.350,NaN,NaN
20040404,021410,1044840,34.328240,-120.127450,14.828,33.349,NaN,NaN
20040404,021440,1044870,34.328790,-120.129090,14.861,33.351,NaN,NaN
20040404,021510,1044900,34.329350,-120.130720,14.902,33.348,NaN,NaN
20040404,021540,1044930,34.329900,-120.132370,14.928,33.351,NaN,NaN
20040404,021610,1044960,34.330450,-120.134030,14.941,33.351,NaN,NaN
20040404,021640,1044990,34.331030,-120.135690,14.938,33.342,NaN,NaN
20040404,021710,1045020,34.331590,-120.137330,14.927,33.351,NaN,NaN
20040404,021740,1045050,34.332160,-120.138980,14.916,33.351,NaN,NaN
20040404,021810,1045079,34.332720,-120.140610,14.906,33.351,NaN,NaN
20040404,021840,1045110,34.333280,-120.142260,14.887,33.352,NaN,NaN
20040404,021910,1045140,34.333840,-120.143900,14.858,33.352,NaN,NaN
20040404,021940,1045170,34.334400,-120.145550,14.832,33.352,NaN,NaN
20040404,022010,1045200,34.334970,-120.147210,14.811,33.353,NaN,NaN
20040404,022040,1045230,34.335530,-120.148870,14.808,33.354,NaN,NaN
20040404,022110,1045260,34.336080,-120.150510,14.815,33.354,NaN,NaN
20040404,022140,1045290,34.336620,-120.152160,14.819,33.354,NaN,NaN
20040404,022209,1045319,34.337160,-120.153760,14.812,33.354,NaN,NaN
20040404,022239,1045349,34.337690,-120.155420,14.792,33.354,NaN,NaN
20040404,022310,1045380,34.338260,-120.157110,14.766,33.354,NaN,NaN
20040404,022339,1045409,34.338770,-120.158690,14.747,33.352,NaN,NaN
20040404,022410,1045440,34.339330,-120.160380,14.731,33.353,NaN,NaN
20040404,022440,1045470,34.339860,-120.162030,14.714,33.354,NaN,NaN
20040404,022509,1045498,34.340370,-120.163630,14.695,33.354,NaN,NaN
20040404,022540,1045530,34.340920,-120.165340,14.686,33.352,NaN,NaN
20040404,022610,1045560,34.341460,-120.166990,14.684,33.354,NaN,NaN
20040404,022640,1045589,34.341980,-120.168610,14.685,33.354,NaN,NaN
20040404,022710,1045620,34.342500,-120.170230,14.701,33.355,NaN,NaN
20040404,022740,1045650,34.343020,-120.171880,14.720,33.354,NaN,NaN
20040404,022810,1045680,34.343520,-120.173520,14.727,33.354,NaN,NaN
20040404,022840,1045710,34.343930,-120.175200,14.743,33.352,NaN,NaN
20040404,022910,1045740,34.344420,-120.176870,14.753,33.353,NaN,NaN
20040404,022940,1045770,34.344860,-120.178560,14.753,33.353,NaN,NaN
20040404,023010,1045800,34.345340,-120.180210,14.757,33.353,NaN,NaN
20040404,023040,1045830,34.345800,-120.181870,14.763,33.353,NaN,NaN
20040404,023109,1045859,34.346210,-120.183540,14.764,33.353,NaN,NaN
20040404,023140,1045890,34.346670,-120.185180,14.756,33.353,NaN,NaN
20040404,023210,1045919,34.347110,-120.186840,14.743,33.354,NaN,NaN
20040404,023240,1045950,34.347550,-120.188480,14.721,33.350,NaN,NaN
20040404,023310,1045980,34.348000,-120.190120,14.694,33.355,NaN,NaN
20040404,023340,1046010,34.348430,-120.191770,14.661,33.355,NaN,NaN
20040404,023410,1046040,34.348860,-120.193400,14.623,33.356,NaN,NaN
20040404,023440,1046070,34.349290,-120.195020,14.583,33.357,NaN,NaN
20040404,023510,1046099,34.349690,-120.196690,14.543,33.358,NaN,NaN
20040404,023540,1046130,34.350120,-120.198320,14.503,33.360,NaN,NaN
20040404,023609,1046159,34.350530,-120.199960,14.456,33.361,NaN,NaN
20040404,023640,1046190,34.350950,-120.201590,14.410,33.362,NaN,NaN
20040404,023710,1046220,34.351370,-120.203240,14.362,33.365,NaN,NaN
20040404,023740,1046250,34.351800,-120.204860,14.311,33.367,NaN,NaN
20040404,023810,1046280,34.352190,-120.206490,14.269,33.370,NaN,NaN
20040404,023840,1046310,34.352610,-120.208120,14.231,33.372,NaN,NaN
20040404,023910,1046340,34.353020,-120.209770,14.191,33.373,NaN,NaN
20040404,023940,1046370,34.353450,-120.211390,14.157,33.375,NaN,NaN
20040404,024010,1046400,34.353820,-120.213060,14.132,33.378,NaN,NaN
20040404,024040,1046429,34.354240,-120.214680,14.107,33.380,NaN,NaN
20040404,024110,1046460,34.354620,-120.216370,14.082,33.381,NaN,NaN
20040404,024140,1046490,34.355010,-120.218020,14.053,33.384,NaN,NaN
20040404,024210,1046520,34.355440,-120.219680,14.028,33.386,NaN,NaN
20040404,024240,1046550,34.355760,-120.221360,14.019,33.388,NaN,NaN
20040404,024311,1046581,34.356130,-120.223090,14.014,33.390,NaN,NaN
20040404,024341,1046611,34.356470,-120.224790,14.007,33.389,NaN,NaN
20040404,024411,1046641,34.356830,-120.226490,13.997,33.391,NaN,NaN
20040404,024441,1046670,34.357190,-120.228230,13.975,33.392,NaN,NaN
20040404,024511,1046701,34.357520,-120.229840,13.962,33.383,NaN,NaN
20040404,024541,1046731,34.357860,-120.231510,13.948,33.393,NaN,NaN
20040404,024610,1046759,34.358230,-120.233190,13.935,33.393,NaN,NaN
20040404,024640,1046790,34.358550,-120.234860,13.925,33.393,NaN,NaN
20040404,024711,1046821,34.358890,-120.236520,13.918,33.393,NaN,NaN
20040404,024741,1046850,34.359200,-120.238190,13.912,33.392,NaN,NaN
20040404,024811,1046881,34.359540,-120.239850,13.899,33.392,NaN,NaN
20040404,024840,1046910,34.359860,-120.241540,13.899,33.392,NaN,NaN
20040404,024911,1046941,34.360190,-120.243190,13.922,33.394,NaN,NaN
20040404,024940,1046970,34.360420,-120.244870,13.965,33.394,NaN,NaN
20040404,025011,1047001,34.360570,-120.246640,14.003,33.394,NaN,NaN
20040404,025041,1047031,34.360770,-120.248360,14.032,33.394,NaN,NaN
20040404,025111,1047061,34.360940,-120.250090,14.052,33.394,NaN,NaN
20040404,025141,1047091,34.361140,-120.251820,14.069,33.394,NaN,NaN
20040404,025211,1047121,34.361330,-120.253480,14.084,33.394,NaN,NaN
20040404,025241,1047151,34.361520,-120.255190,14.105,33.394,NaN,NaN
20040404,025310,1047180,34.361730,-120.256930,14.132,33.390,NaN,NaN